Preview of NWS' New Version of Forecast
This preview is not operational and should not be used for support decisions.

Regional Weather Roundup (RWR)

Issued by National Weather Service (NWS)

                            
000
ASUS44 KJAN 191910
RWRMS 

MISSISSIPPI HOURLY WEATHER ROUNDUP
NATIONAL WEATHER SERVICE JACKSON MS
200 PM CDT THU SEP 19 2019

NOTE: "FAIR: INDICATES FEW OR NO CLOUDS BELOW 12,000 FEET WITH NO
SIGNIFICANT WEATHER AND/OR OBSTRUCTIONS TO VISIBILITY.

MSZ001>002-007>008-010>013-018>021-025>028-034>036-192000-
NORTHWEST MISSISSIPPI
  
CITY           SKY/WX    TMP DP  RH WIND       PRES   REMARKS
BATESVILLE     FAIR      95  73  49 VRB7      30.01F HX 105           
CLARKSDALE       N/A     95  72  46 VRB6G13   29.99F HX 103           
CLEVELAND      FAIR      94  67  40 SE12      29.97F HX  97           
GREENWOOD      FAIR      94  70  45 SE8       29.99F HX 100           
GREENVILLE     FAIR      93  69  45 SE7       29.98F HX  98           
OLIVE BRANCH   MOSUNNY   91  70  49 SE9       30.02F HX  97           
OXFORD         FAIR      90  70  51 SE8G14    30.05F HX  95           
TUNICA           N/A     91  70  49 E7        30.01F HX  97           
WINONA         FAIR      89  73  58 SE5       30.02F HX  96           
$$

MSZ003>006-009-014>017-022>024-029>033-037>039-192000-
NORTHEAST MISSISSIPPI
  
CITY           SKY/WX    TMP DP  RH WIND       PRES   REMARKS
ABERDEEN       CLOUDY    81  63  54 E8G16     30.09F                  
COLUMBUS AFB   CLOUDY    82  70  65 SE9       30.07F                  
CORINTH        MOCLDY    84  68  58 SE14      30.08F                  
GOLDN TRIANGLE CLOUDY    83  72  69 SE13      30.08F                  
STARKVILLE     CLOUDY    81  70  69 E8        30.08F                  
TUPELO         CLOUDY    85  69  58 SE9       30.07F                  
$$

MSZ040-058-192000-
CENTRAL MISSISSIPPI
  
CITY           SKY/WX    TMP DP  RH WIND       PRES   REMARKS
JACKSON INTL   FAIR      93  69  45 SE6       29.98F HX  98           
JACKSON HAWKNS FAIR      92  70  48 SE8       29.99F HX  97           
MADISON        FAIR      91  70  49 E6        30.00F HX  97           
MERIDIAN KEY   CLOUDY    85  72  65 SE9       30.05F HX  91           
MERIDIAN NAS   CLOUDY    84  71  65 SE7       30.06F                  
RAYMOND          N/A     95  73  49 VRB7      29.99F HX 105           
VICKSBURG VKS  CLEAR     91  70  49 VRB5      29.98F HX  97           
$$

MSZ059>079-192000-
SOUTH MISSISSIPPI
  
CITY           SKY/WX    TMP DP  RH WIND       PRES   REMARKS
BROOKHAVEN     FAIR      91  68  46 N5        30.01F HX  95           
HATTIESBURG    FAIR      93  69  45 E6        29.99F HX  98           
LAUREL         MOCLDY    89  74  61 E10       30.01F HX  98           
MCCOMB         FAIR      91  66  43 SW9       30.00F HX  93           
NATCHEZ        FAIR      88  71  57 S10       30.00F HX  94           
PINE BELT      FAIR      91  73  55 VRB6      30.01F HX  99           
$$

MSZ080>082-192000-
COASTAL MISSISSIPPI
  
CITY           SKY/WX    TMP DP  RH WIND       PRES   REMARKS
BAY ST LOUIS   MOSUNNY   90  73  58 S9        29.99F HX  98           
BILOXI         FAIR      92  74  54 S10       29.99F HX 101           
PASCAGOULA     NOT AVBL                                               
GULFPORT       NOT AVBL                                               
$$

LAZ007>009-015>016-023>026-192000-
NORTHEAST LOUISIANA
  
CITY           SKY/WX    TMP DP  RH WIND       PRES   REMARKS
BASTROP        FAIR      93  67  42 SE6       29.97F HX  97           
TALLULAH/VBURG FAIR      93  69  45 SE8       29.98F HX  98           
VIDALIA        FAIR     N/A N/A N/A S8        29.98F                  
$$